| time (UTC) | temp F | wind direction | speed knots | gust knots | rain 1hr in | rain 24hr in | rain mn in | humidity % | barometer mb |
| 20260507050149 | 48 | 282 | 0.0 | 0.0 | 0.00 | 0.17 | 0.00 | 92 | 1083.9 |
| 20260507045147 | 48 | 135 | 0.0 | 0.0 | 0.00 | 0.17 | 0.00 | 92 | 1083.6 |
| 20260507044230 | 49 | 135 | 0.0 | 0.0 | 0.00 | 0.17 | 0.00 | 92 | 1083.5 |
| 20260507043246 | 49 | 135 | 0.0 | 0.0 | 0.00 | 0.17 | 0.00 | 91 | 1083.3 |
| 20260507042330 | 49 | 140 | 0.0 | 0.0 | 0.00 | 0.17 | 0.00 | 91 | 1083.3 |
| 20260507040347 | 50 | 246 | 0.0 | 2.6 | 0.00 | 0.17 | 0.00 | 90 | 1083.3 |
| 20260507035411 | 50 | 298 | 3.5 | 7.0 | 0.01 | 0.17 | 0.17 | 92 | 1083.4 |
| 20260507034409 | 51 | 255 | 1.7 | 4.3 | 0.01 | 0.17 | 0.17 | 93 | 1083.2 |
| 20260507033410 | 51 | 246 | 1.7 | 3.5 | 0.01 | 0.17 | 0.17 | 94 | 1083.1 |
| 20260507031510 | 51 | 313 | 4.3 | 7.0 | 0.03 | 0.17 | 0.17 | 92 | 1082.7 |
| 20260507030525 | 52 | 270 | 0.0 | 0.0 | 0.03 | 0.17 | 0.17 | 92 | 1082.8 |
| 20260507025527 | 52 | 270 | 0.0 | 0.0 | 0.02 | 0.16 | 0.16 | 91 | 1082.7 |
| 20260507023626 | 54 | 266 | 3.5 | 9.6 | 0.04 | 0.16 | 0.16 | 93 | 1082.7 |
| 20260507022611 | 55 | 293 | 0.9 | 2.6 | 0.03 | 0.15 | 0.14 | 94 | 1083.2 |
| 20260507020711 | 56 | 291 | 4.3 | 7.8 | 0.02 | 0.14 | 0.14 | 94 | 1082.4 |
| 20260507015710 | 57 | 263 | 6.1 | 10.4 | 0.02 | 0.14 | 0.14 | 95 | 1082.0 |
| 20260507014726 | 57 | 256 | 3.5 | 5.2 | 0.01 | 0.13 | 0.13 | 95 | 1082.0 |
| 20260507013726 | 57 | 232 | 1.7 | 5.2 | 0.00 | 0.12 | 0.12 | 95 | 1082.2 |
| 20260507012727 | 58 | 215 | 0.9 | 4.3 | 0.00 | 0.12 | 0.12 | 94 | 1082.0 |
| 20260507010811 | 58 | 201 | 0.0 | 3.5 | 0.00 | 0.12 | 0.12 | 94 | 1081.8 |
| 20260507005825 | 58 | 188 | 0.9 | 7.8 | 0.00 | 0.12 | 0.12 | 93 | 1082.0 |
| 20260507004828 | 58 | 221 | 0.0 | 1.7 | 0.00 | 0.12 | 0.12 | 93 | 1081.8 |
| 20260507003910 | 58 | 230 | 0.0 | 0.9 | 0.00 | 0.12 | 0.12 | 92 | 1081.9 |
| 20260507003009 | 58 | 244 | 2.6 | 5.2 | 0.00 | 0.12 | 0.12 | 92 | 1081.7 |
| 20260507002026 | 58 | 188 | 0.0 | 1.7 | 0.00 | 0.12 | 0.12 | 92 | 1081.4 |
| 20260507001110 | 58 | 251 | 2.6 | 4.3 | 0.00 | 0.12 | 0.12 | 93 | 1081.3 |
| 20260507001026 | 58 | 218 | 0.9 | 3.5 | 0.00 | 0.12 | 0.12 | 92 | 1081.4 |
| 20260506235025 | 58 | 209 | 0.0 | 2.6 | 0.00 | 0.12 | 0.12 | 93 | 1081.4 |
| 20260506234011 | 58 | 187 | 0.0 | 0.0 | 0.00 | 0.12 | 0.12 | 93 | 1081.2 |
| 20260506233011 | 58 | 204 | 0.0 | 0.9 | 0.00 | 0.12 | 0.12 | 93 | 1081.0 |
| 20260506232027 | 58 | 173 | 0.0 | 1.7 | 0.00 | 0.12 | 0.12 | 93 | 1081.2 |
| 20260506231111 | 58 | 195 | 0.0 | 0.0 | 0.00 | 0.12 | 0.12 | 93 | 1081.1 |
| 20260506231025 | 58 | 191 | 0.0 | 0.0 | 0.00 | 0.12 | 0.12 | 92 | 1081.2 |
| 20260506230010 | 58 | 228 | 0.0 | 0.0 | 0.00 | 0.12 | 0.12 | 92 | 1081.4 |
| 20260506225026 | 58 | 202 | 0.0 | 2.6 | 0.00 | 0.12 | 0.12 | 92 | 1081.3 |
| 20260506224026 | 58 | 237 | 0.9 | 4.3 | 0.00 | 0.12 | 0.12 | 93 | 1081.4 |
| 20260506221127 | 58 | 248 | 2.6 | 8.7 | 0.00 | 0.12 | 0.12 | 93 | 1081.4 |
| 20260506220211 | 58 | 197 | 0.9 | 7.8 | 0.02 | 0.12 | 0.12 | 94 | 1081.7 |
| 20260506215308 | 58 | 224 | 0.9 | 6.1 | 0.03 | 0.12 | 0.12 | 94 | 1081.6 |
| 20260506214309 | 58 | 187 | 0.0 | 1.7 | 0.03 | 0.12 | 0.12 | 93 | 1081.5 |
| 20260506213327 | 58 | 206 | 0.9 | 8.7 | 0.03 | 0.12 | 0.12 | 93 | 1081.6 |
| 20260506211411 | 58 | 166 | 0.0 | 2.6 | 0.04 | 0.12 | 0.12 | 93 | 1081.5 |
| 20260506210411 | 58 | 192 | 0.0 | 2.6 | 0.04 | 0.11 | 0.10 | 93 | 1081.7 |
| 20260506205326 | 59 | 211 | 0.9 | 6.1 | 0.03 | 0.09 | 0.09 | 94 | 1081.7 |
| 20260506204311 | 59 | 197 | 1.7 | 8.7 | 0.03 | 0.09 | 0.09 | 94 | 1082.0 |
| 20260506203325 | 59 | 176 | 0.0 | 0.0 | 0.04 | 0.09 | 0.09 | 92 | 1082.0 |
| 20260506202326 | 59 | 205 | 0.0 | 5.2 | 0.04 | 0.08 | 0.08 | 92 | 1082.0 |
| 20260506201325 | 59 | 190 | 0.0 | 3.5 | 0.03 | 0.07 | 0.07 | 93 | 1082.2 |
| 20260506200309 | 59 | 197 | 0.9 | 4.3 | 0.03 | 0.07 | 0.07 | 93 | 1082.2 |
| 20260506200225 | 59 | 207 | 0.9 | 7.8 | 0.03 | 0.07 | 0.06 | 93 | 1082.3 |
| 20260506193410 | 60 | 189 | 0.0 | 0.0 | 0.02 | 0.05 | 0.05 | 90 | 1082.5 |
| 20260506193326 | 60 | 171 | 0.0 | 1.7 | 0.02 | 0.05 | 0.05 | 90 | 1082.8 |
| 20260506192327 | 60 | 215 | 1.7 | 7.8 | 0.01 | 0.04 | 0.04 | 90 | 1082.6 |
| 20260506191426 | 60 | 223 | 0.0 | 3.5 | 0.01 | 0.04 | 0.04 | 91 | 1082.6 |
| 20260506185425 | 60 | 195 | 0.0 | 3.5 | 0.03 | 0.04 | 0.04 | 90 | 1082.4 |
| 20260506184411 | 60 | 154 | 0.0 | 3.5 | 0.03 | 0.04 | 0.04 | 90 | 1082.5 |
| 20260506180610 | 61 | 204 | 0.0 | 0.0 | 0.02 | 0.02 | 0.02 | 87 | 1083.5 |
| 20260506175611 | 61 | 191 | 0.0 | 0.0 | 0.02 | 0.02 | 0.01 | 84 | 1083.8 |
| 20260506174625 | 62 | 212 | 0.0 | 1.7 | 0.01 | 0.01 | 0.01 | 80 | 1083.7 |
| 20260506173627 | 62 | 186 | 0.0 | 0.0 | 0.00 | 0.00 | 0.00 | 77 | 1084.0 |
| 20260506171625 | 64 | 204 | 2.6 | 6.1 | 0.00 | 0.00 | 0.00 | 70 | 1083.7 |
| 20260506171512 | 64 | 204 | 4.3 | 7.8 | 0.00 | 0.00 | 0.00 | 70 | 1083.7 |
| 20260506170609 | 65 | 236 | 2.6 | 5.2 | 0.00 | 0.00 | 0.00 | 68 | 1083.8 |
| 20260506164724 | 65 | 155 | 6.1 | 9.6 | 0.00 | 0.00 | 0.00 | 68 | 1083.7 |
| 20260506163710 | 65 | 209 | 2.6 | 5.2 | 0.00 | 0.00 | 0.00 | 67 | 1083.9 |
| 20260506162711 | 66 | 257 | 5.2 | 11.3 | 0.00 | 0.00 | 0.00 | 67 | 1084.0 |
| 20260506161724 | 65 | 250 | 5.2 | 8.7 | 0.00 | 0.00 | 0.00 | 66 | 1084.0 |
| 20260506155726 | 66 | 228 | 2.6 | 6.1 | 0.00 | 0.00 | 0.00 | 66 | 1084.4 |
| 20260506154825 | 66 | 250 | 6.1 | 10.4 | 0.00 | 0.00 | 0.00 | 65 | 1084.4 |
| 20260506153811 | 66 | 212 | 0.9 | 6.1 | 0.00 | 0.00 | 0.00 | 66 | 1084.7 |
| 20260506152827 | 66 | 250 | 2.6 | 6.1 | 0.00 | 0.00 | 0.00 | 66 | 1084.8 |
| 20260506151826 | 66 | 178 | 10.4 | 14.8 | 0.00 | 0.00 | 0.00 | 67 | 1084.9 |
| 20260506150911 | 66 | 177 | 1.7 | 7.0 | 0.00 | 0.00 | 0.00 | 66 | 1085.1 |
| 20260506145925 | 66 | 202 | 2.6 | 7.8 | 0.00 | 0.00 | 0.00 | 65 | 1085.1 |
| 20260506145011 | 67 | 204 | 6.1 | 11.3 | 0.00 | 0.00 | 0.00 | 65 | 1085.1 |
| 20260506144011 | 67 | 196 | 0.0 | 5.2 | 0.00 | 0.00 | 0.00 | 66 | 1084.7 |
| 20260506143025 | 67 | 184 | 1.7 | 7.0 | 0.00 | 0.00 | 0.00 | 65 | 1085.1 |
| 20260506142109 | 67 | 257 | 5.2 | 8.7 | 0.00 | 0.00 | 0.00 | 67 | 1084.8 |
| 20260506141126 | 66 | 248 | 4.3 | 7.0 | 0.00 | 0.00 | 0.00 | 69 | 1084.6 |
| 20260506140125 | 65 | 189 | 0.9 | 3.5 | 0.00 | 0.00 | 0.00 | 69 | 1084.7 |
| 20260506134225 | 65 | 189 | 2.6 | 6.1 | 0.00 | 0.00 | 0.00 | 72 | 1084.4 |
| 20260506133310 | 64 | 244 | 1.7 | 5.2 | 0.00 | 0.00 | 0.00 | 71 | 1084.7 |
| 20260506132325 | 64 | 203 | 1.7 | 6.1 | 0.00 | 0.00 | 0.00 | 73 | 1085.0 |
| 20260506131309 | 64 | 231 | 1.7 | 6.1 | 0.00 | 0.00 | 0.00 | 73 | 1084.8 |
| 20260506130326 | 64 | 237 | 3.5 | 7.8 | 0.00 | 0.00 | 0.00 | 73 | 1084.9 |
| 20260506125409 | 63 | 211 | 3.5 | 13.0 | 0.00 | 0.00 | 0.00 | 74 | 1084.9 |
| 20260506124426 | 63 | 230 | 1.7 | 12.2 | 0.00 | 0.00 | 0.00 | 76 | 1085.0 |
| 20260506123425 | 62 | 238 | 5.2 | 7.8 | 0.00 | 0.00 | 0.00 | 76 | 1085.2 |
| 20260506122510 | 62 | 196 | 7.0 | 14.8 | 0.00 | 0.00 | 0.00 | 78 | 1085.1 |
| 20260506121608 | 61 | 250 | 4.3 | 12.2 | 0.00 | 0.00 | 0.00 | 77 | 1085.1 |
| 20260506120612 | 61 | 189 | 0.0 | 0.9 | 0.00 | 0.00 | 0.00 | 78 | 1085.1 |
| 20260506114610 | 61 | 181 | 0.0 | 0.0 | 0.00 | 0.00 | 0.00 | 79 | 1085.3 |
| 20260506113708 | 60 | 220 | 0.0 | 0.9 | 0.00 | 0.00 | 0.00 | 80 | 1085.3 |
| 20260506112808 | 60 | 187 | 4.3 | 8.7 | 0.00 | 0.00 | 0.00 | 80 | 1085.5 |
| 20260506111824 | 60 | 217 | 4.3 | 6.1 | 0.00 | 0.00 | 0.00 | 80 | 1085.6 |
| 20260506105825 | 59 | 236 | 2.6 | 5.2 | 0.00 | 0.00 | 0.00 | 79 | 1085.6 |
| 20260506103908 | 59 | 206 | 0.0 | 4.3 | 0.00 | 0.00 | 0.00 | 80 | 1085.3 |
| 20260506102924 | 59 | 196 | 0.9 | 7.8 | 0.00 | 0.00 | 0.00 | 80 | 1085.5 |
| 20260506102010 | 59 | 165 | 0.9 | 8.7 | 0.00 | 0.00 | 0.00 | 80 | 1085.4 |
| 20260506101025 | 59 | 200 | 0.0 | 2.6 | 0.00 | 0.00 | 0.00 | 80 | 1085.4 |
| 20260506100044 | 58 | 208 | 0.0 | 1.7 | 0.00 | 0.00 | 0.00 | 79 | 1085.1 |
| 20260506094126 | 59 | 180 | 0.0 | 0.0 | 0.00 | 0.00 | 0.00 | 78 | 1085.5 |
| 20260506092209 | 58 | 223 | 0.0 | 0.9 | 0.00 | 0.00 | 0.00 | 78 | 1085.4 |
| 20260506091225 | 59 | 178 | 0.0 | 0.0 | 0.00 | 0.00 | 0.00 | 76 | 1085.3 |
| 20260506090309 | 59 | 223 | 0.0 | 0.9 | 0.00 | 0.00 | 0.00 | 76 | 1085.5 |
| 20260506085325 | 59 | 204 | 0.9 | 5.2 | 0.00 | 0.00 | 0.00 | 75 | 1085.4 |
| 20260506085226 | 59 | 217 | 0.0 | 1.7 | 0.00 | 0.00 | 0.00 | 75 | 1085.3 |
| 20260506084227 | 59 | 203 | 0.0 | 2.6 | 0.00 | 0.00 | 0.00 | 74 | 1085.4 |
| 20260506084128 | 59 | 228 | 0.9 | 3.5 | 0.00 | 0.00 | 0.00 | 74 | 1085.4 |
| 20260506082210 | 60 | 261 | 2.6 | 4.3 | 0.00 | 0.00 | 0.00 | 72 | 1085.4 |
| 20260506082126 | 60 | 259 | 4.3 | 9.6 | 0.00 | 0.00 | 0.00 | 73 | 1085.4 |
| 20260506081125 | 60 | 205 | 0.0 | 1.7 | 0.00 | 0.00 | 0.00 | 72 | 1085.3 |
| 20260506080224 | 60 | 228 | 0.0 | 0.9 | 0.00 | 0.00 | 0.00 | 71 | 1085.3 |
| 20260506073308 | 61 | 242 | 1.7 | 4.3 | 0.00 | 0.00 | 0.00 | 68 | 1085.3 |
| 20260506073212 | 61 | 236 | 2.6 | 5.2 | 0.00 | 0.00 | 0.00 | 69 | 1085.2 |
| 20260506072127 | 62 | 254 | 3.5 | 6.1 | 0.00 | 0.00 | 0.00 | 69 | 1085.2 |
| 20260506062409 | 62 | 229 | 2.6 | 10.4 | 0.00 | 0.00 | 0.00 | 64 | 1085.0 |
| 20260506061424 | 62 | 249 | 4.3 | 6.1 | 0.00 | 0.00 | 0.00 | 65 | 1085.1 |
| 20260506061327 | 62 | 247 | 4.3 | 7.8 | 0.00 | 0.00 | 0.00 | 65 | 1085.1 |
| 20260506060324 | 62 | 245 | 2.6 | 6.1 | 0.00 | 0.00 | 0.00 | 65 | 1085.1 |
| 20260506051207 | 63 | 241 | 5.2 | 9.6 | 0.00 | 0.00 | 0.00 | 63 | 1085.2 |